| time (UTC) | temp F | wind direction | speed knots | gust knots | rain 1hr in | rain 24hr in | rain mn in | humidity % | barometer mb |
| 20260507023011 | 49 | 349 | 0.0 | 0.0 | 0.00 | 0.00 | 0.00 | 40 | 1013.6 |
| 20260507022507 | 49 | 349 | 0.0 | 0.0 | 0.00 | 0.00 | 0.00 | 39 | 1013.6 |
| 20260507022011 | 49 | 349 | 0.0 | 0.0 | 0.00 | 0.00 | 0.00 | 38 | 1013.7 |
| 20260507021519 | 50 | 349 | 0.0 | 0.0 | 0.00 | 0.00 | 0.00 | 38 | 1013.6 |
| 20260507021007 | 50 | 349 | 0.0 | 0.0 | 0.00 | 0.00 | 0.00 | 37 | 1013.7 |
| 20260507020508 | 50 | 349 | 0.0 | 0.0 | 0.00 | 0.00 | 0.00 | 37 | 1013.7 |
| 20260507020035 | 51 | 349 | 0.0 | 0.0 | 0.00 | 0.00 | 0.00 | 36 | 1013.8 |
| 20260507015507 | 51 | 349 | 0.0 | 0.9 | 0.00 | 0.00 | 0.00 | 36 | 1013.7 |
| 20260507015009 | 51 | 349 | 0.0 | 0.9 | 0.00 | 0.00 | 0.00 | 36 | 1013.6 |
| 20260507014526 | 51 | 349 | 0.0 | 0.9 | 0.00 | 0.00 | 0.00 | 36 | 1013.6 |
| 20260507014010 | 52 | 349 | 0.0 | 0.9 | 0.00 | 0.00 | 0.00 | 36 | 1013.6 |
| 20260507013508 | 52 | 349 | 0.0 | 2.6 | 0.00 | 0.00 | 0.00 | 35 | 1013.6 |
| 20260507013044 | 52 | 349 | 0.0 | 2.6 | 0.00 | 0.00 | 0.00 | 35 | 1013.6 |
| 20260507012506 | 52 | 327 | 0.0 | 1.7 | 0.00 | 0.00 | 0.00 | 35 | 1013.6 |
| 20260507012007 | 53 | 326 | 0.0 | 1.7 | 0.00 | 0.00 | 0.00 | 35 | 1013.6 |
| 20260507011514 | 53 | 295 | 0.0 | 3.5 | 0.00 | 0.00 | 0.00 | 34 | 1013.6 |
| 20260507011007 | 53 | 331 | 0.0 | 3.5 | 0.00 | 0.00 | 0.00 | 33 | 1013.7 |
| 20260507010507 | 53 | 31 | 0.0 | 2.6 | 0.00 | 0.00 | 0.00 | 34 | 1013.7 |
| 20260507010026 | 53 | 353 | 0.0 | 3.5 | 0.00 | 0.00 | 0.00 | 33 | 1013.8 |
| 20260507005508 | 54 | 349 | 0.0 | 3.5 | 0.00 | 0.00 | 0.00 | 33 | 1013.7 |
| 20260507005010 | 54 | 31 | 0.9 | 4.3 | 0.00 | 0.00 | 0.00 | 33 | 1013.7 |
| 20260507004524 | 54 | 331 | 0.9 | 4.3 | 0.00 | 0.00 | 0.00 | 33 | 1013.7 |
| 20260507004005 | 54 | 267 | 0.0 | 4.3 | 0.00 | 0.00 | 0.00 | 33 | 1013.7 |
| 20260507003504 | 54 | 85 | 0.9 | 3.5 | 0.00 | 0.00 | 0.00 | 33 | 1013.8 |
| 20260507003006 | 54 | 49 | 0.9 | 4.3 | 0.00 | 0.00 | 0.00 | 34 | 1013.8 |
| 20260507002505 | 54 | 335 | 0.9 | 5.2 | 0.00 | 0.00 | 0.00 | 32 | 1013.9 |
| 20260507002004 | 54 | 12 | 0.0 | 5.2 | 0.00 | 0.00 | 0.00 | 33 | 1013.9 |
| 20260507001514 | 54 | 258 | 1.7 | 5.2 | 0.00 | 0.00 | 0.00 | 32 | 1014.0 |
| 20260507001009 | 54 | 335 | 0.9 | 4.3 | 0.00 | 0.00 | 0.00 | 32 | 1014.0 |
| 20260507000507 | 55 | 16 | 1.7 | 4.3 | 0.00 | 0.00 | 0.00 | 32 | 1014.0 |
| 20260507000019 | 55 | 85 | 0.9 | 7.0 | 0.00 | 0.00 | 0.00 | 33 | 1014.1 |
| 20260506235509 | 55 | 51 | 0.9 | 7.0 | 0.00 | 0.00 | 0.00 | 33 | 1014.1 |
| 20260506235007 | 55 | 66 | 0.9 | 7.0 | 0.00 | 0.00 | 0.00 | 32 | 1014.1 |
| 20260506234528 | 56 | 301 | 1.7 | 7.0 | 0.00 | 0.00 | 0.00 | 31 | 1014.1 |
| 20260506234010 | 56 | 28 | 0.9 | 4.3 | 0.00 | 0.00 | 0.00 | 31 | 1014.1 |
| 20260506233507 | 56 | 6 | 0.0 | 6.1 | 0.00 | 0.00 | 0.00 | 33 | 1014.1 |
| 20260506233027 | 55 | 8 | 0.9 | 7.8 | 0.00 | 0.00 | 0.00 | 33 | 1014.2 |
| 20260506232504 | 56 | 255 | 0.9 | 7.8 | 0.00 | 0.00 | 0.00 | 31 | 1014.2 |
| 20260506232004 | 57 | 30 | 1.7 | 7.0 | 0.00 | 0.00 | 0.00 | 32 | 1014.2 |
| 20260506231508 | 57 | 299 | 1.7 | 8.7 | 0.00 | 0.00 | 0.00 | 31 | 1014.2 |
| 20260506231005 | 56 | 357 | 1.7 | 8.7 | 0.00 | 0.00 | 0.00 | 31 | 1014.2 |
| 20260506230505 | 56 | 305 | 2.6 | 7.0 | 0.00 | 0.00 | 0.00 | 32 | 1014.2 |
| 20260506230014 | 56 | 7 | 0.9 | 6.1 | 0.00 | 0.00 | 0.00 | 33 | 1014.2 |
| 20260506225508 | 56 | 355 | 0.9 | 6.1 | 0.00 | 0.00 | 0.00 | 34 | 1014.3 |
| 20260506225007 | 56 | 357 | 0.9 | 6.1 | 0.00 | 0.00 | 0.00 | 32 | 1014.4 |
| 20260506224519 | 56 | 355 | 0.9 | 7.0 | 0.00 | 0.00 | 0.00 | 33 | 1014.4 |
| 20260506224009 | 56 | 243 | 1.7 | 7.0 | 0.00 | 0.00 | 0.00 | 31 | 1014.4 |
| 20260506223509 | 56 | 41 | 0.9 | 7.0 | 0.00 | 0.00 | 0.00 | 33 | 1014.6 |
| 20260506223024 | 56 | 2 | 0.9 | 7.0 | 0.00 | 0.00 | 0.00 | 33 | 1014.6 |
| 20260506222510 | 57 | 256 | 1.7 | 6.1 | 0.00 | 0.00 | 0.00 | 32 | 1014.6 |
| 20260506222011 | 57 | 355 | 0.9 | 6.1 | 0.00 | 0.00 | 0.00 | 32 | 1014.6 |
| 20260506221525 | 56 | 355 | 0.9 | 8.7 | 0.00 | 0.00 | 0.00 | 35 | 1014.6 |
| 20260506221004 | 56 | 46 | 1.7 | 8.7 | 0.00 | 0.00 | 0.00 | 31 | 1014.6 |
| 20260506220504 | 57 | 76 | 0.9 | 7.0 | 0.00 | 0.00 | 0.00 | 33 | 1014.7 |
| 20260506220022 | 56 | 308 | 0.9 | 9.6 | 0.00 | 0.00 | 0.00 | 33 | 1014.6 |
| 20260506215509 | 56 | 49 | 0.9 | 9.6 | 0.00 | 0.00 | 0.00 | 35 | 1014.7 |
| 20260506215006 | 56 | 49 | 0.9 | 7.0 | 0.00 | 0.00 | 0.00 | 33 | 1014.7 |
| 20260506214517 | 55 | 54 | 0.9 | 10.4 | 0.00 | 0.00 | 0.00 | 32 | 1014.8 |
| 20260506214007 | 56 | 6 | 2.6 | 10.4 | 0.00 | 0.00 | 0.00 | 32 | 1014.9 |
| 20260506213508 | 57 | 306 | 1.7 | 7.8 | 0.00 | 0.00 | 0.00 | 33 | 1014.9 |
| 20260506213023 | 56 | 259 | 0.9 | 7.8 | 0.00 | 0.00 | 0.00 | 35 | 1015.0 |
| 20260506212509 | 56 | 305 | 0.9 | 8.7 | 0.00 | 0.00 | 0.00 | 34 | 1015.1 |
| 20260506212010 | 56 | 254 | 1.7 | 8.7 | 0.00 | 0.00 | 0.00 | 32 | 1015.1 |
| 20260506211528 | 56 | 49 | 0.9 | 7.8 | 0.00 | 0.00 | 0.00 | 35 | 1015.2 |
| 20260506211010 | 55 | 72 | 0.9 | 7.8 | 0.00 | 0.00 | 0.00 | 36 | 1015.3 |
| 20260506210517 | 55 | 284 | 0.9 | 5.2 | 0.00 | 0.00 | 0.00 | 36 | 1015.4 |
| 20260506210011 | 55 | 330 | 0.9 | 13.0 | 0.00 | 0.00 | 0.00 | 36 | 1015.5 |
| 20260506205504 | 55 | 78 | 3.5 | 13.0 | 0.00 | 0.00 | 0.00 | 35 | 1015.5 |
| 20260506205005 | 55 | 17 | 0.9 | 5.2 | 0.00 | 0.00 | 0.00 | 36 | 1015.6 |
| 20260506204514 | 55 | 51 | 0.9 | 7.0 | 0.00 | 0.00 | 0.00 | 37 | 1015.7 |
| 20260506204007 | 54 | 345 | 0.9 | 7.0 | 0.00 | 0.00 | 0.00 | 36 | 1015.8 |
| 20260506203506 | 54 | 62 | 0.9 | 9.6 | 0.00 | 0.00 | 0.00 | 37 | 1015.9 |
| 20260506203017 | 54 | 111 | 0.9 | 9.6 | 0.00 | 0.00 | 0.00 | 37 | 1016.0 |
| 20260506202511 | 55 | 81 | 0.9 | 6.1 | 0.00 | 0.00 | 0.00 | 37 | 1015.9 |
| 20260506202011 | 55 | 251 | 0.0 | 7.0 | 0.00 | 0.00 | 0.00 | 38 | 1015.9 |
| 20260506201532 | 55 | 91 | 0.9 | 7.0 | 0.00 | 0.00 | 0.00 | 38 | 1016.0 |
| 20260506201013 | 55 | 60 | 0.9 | 6.1 | 0.00 | 0.00 | 0.00 | 39 | 1016.0 |
| 20260506200507 | 55 | 43 | 0.9 | 7.8 | 0.00 | 0.00 | 0.00 | 37 | 1016.0 |
| 20260506200038 | 55 | 84 | 1.7 | 7.8 | 0.00 | 0.00 | 0.00 | 37 | 1016.1 |
| 20260506195507 | 55 | 239 | 0.9 | 7.0 | 0.00 | 0.00 | 0.00 | 39 | 1016.0 |
| 20260506195013 | 55 | 26 | 0.9 | 7.8 | 0.00 | 0.00 | 0.00 | 41 | 1016.0 |
| 20260506194511 | 54 | 340 | 0.9 | 7.8 | 0.00 | 0.00 | 0.00 | 38 | 1016.1 |
| 20260506194008 | 54 | 68 | 0.9 | 6.1 | 0.00 | 0.00 | 0.00 | 38 | 1016.2 |
| 20260506193506 | 53 | 5 | 0.9 | 6.1 | 0.00 | 0.00 | 0.00 | 39 | 1016.3 |
| 20260506193014 | 53 | 22 | 0.9 | 7.8 | 0.00 | 0.00 | 0.00 | 38 | 1016.2 |
| 20260506192507 | 53 | 36 | 2.6 | 7.8 | 0.00 | 0.00 | 0.00 | 37 | 1016.2 |
| 20260506192010 | 54 | 63 | 1.7 | 8.7 | 0.00 | 0.00 | 0.00 | 37 | 1016.2 |
| 20260506191522 | 54 | 276 | 1.7 | 8.7 | 0.00 | 0.00 | 0.00 | 37 | 1016.3 |
| 20260506191009 | 54 | 259 | 1.7 | 7.0 | 0.00 | 0.00 | 0.00 | 37 | 1016.5 |
| 20260506190508 | 53 | 70 | 1.7 | 6.1 | 0.00 | 0.00 | 0.00 | 40 | 1016.3 |
| 20260506190026 | 53 | 33 | 0.9 | 6.1 | 0.00 | 0.00 | 0.00 | 38 | 1016.4 |
| 20260506185511 | 53 | 35 | 2.6 | 6.1 | 0.00 | 0.00 | 0.00 | 38 | 1016.4 |
| 20260506185011 | 53 | 7 | 0.9 | 7.0 | 0.00 | 0.00 | 0.00 | 39 | 1016.4 |
| 20260506184528 | 53 | 253 | 1.7 | 7.0 | 0.00 | 0.00 | 0.00 | 39 | 1016.5 |
| 20260506184013 | 52 | 43 | 0.9 | 8.7 | 0.00 | 0.00 | 0.00 | 42 | 1016.6 |
| 20260506183507 | 52 | 40 | 2.6 | 8.7 | 0.00 | 0.00 | 0.00 | 39 | 1016.6 |
| 20260506183013 | 52 | 37 | 0.9 | 7.8 | 0.00 | 0.00 | 0.00 | 40 | 1016.6 |
| 20260506182507 | 53 | 55 | 0.9 | 7.0 | 0.00 | 0.00 | 0.00 | 44 | 1016.7 |
| 20260506182009 | 53 | 35 | 1.7 | 6.1 | 0.00 | 0.00 | 0.00 | 45 | 1016.7 |
| 20260506181521 | 53 | 35 | 1.7 | 6.1 | 0.00 | 0.00 | 0.00 | 39 | 1016.9 |
| 20260506181008 | 52 | 249 | 1.7 | 6.1 | 0.00 | 0.00 | 0.00 | 41 | 1016.8 |
| 20260506180510 | 53 | 24 | 0.9 | 6.1 | 0.00 | 0.00 | 0.00 | 40 | 1017.0 |
| 20260506180023 | 52 | 45 | 1.7 | 7.0 | 0.00 | 0.00 | 0.00 | 42 | 1016.9 |
| 20260506175510 | 52 | 54 | 1.7 | 7.0 | 0.00 | 0.00 | 0.00 | 41 | 1017.0 |
| 20260506175008 | 52 | 326 | 0.9 | 7.0 | 0.00 | 0.00 | 0.00 | 46 | 1017.2 |
| 20260506174525 | 51 | 81 | 0.9 | 7.0 | 0.00 | 0.00 | 0.00 | 43 | 1017.3 |
| 20260506174010 | 52 | 345 | 1.7 | 8.7 | 0.00 | 0.00 | 0.00 | 41 | 1017.5 |
| 20260506173507 | 52 | 8 | 1.7 | 8.7 | 0.00 | 0.00 | 0.00 | 43 | 1017.5 |
| 20260506173025 | 51 | 2 | 1.7 | 7.0 | 0.00 | 0.00 | 0.00 | 42 | 1017.5 |
| 20260506172507 | 50 | 312 | 1.7 | 7.0 | 0.00 | 0.00 | 0.00 | 43 | 1017.4 |
| 20260506172006 | 50 | 75 | 0.9 | 10.4 | 0.00 | 0.00 | 0.00 | 41 | 1017.4 |
| 20260506171515 | 50 | 239 | 1.7 | 10.4 | 0.00 | 0.00 | 0.00 | 41 | 1017.5 |
| 20260506171008 | 50 | 45 | 1.7 | 7.8 | 0.00 | 0.00 | 0.00 | 45 | 1017.5 |
| 20260506170509 | 50 | 89 | 0.9 | 8.7 | 0.00 | 0.00 | 0.00 | 42 | 1017.7 |
| 20260506170020 | 50 | 38 | 0.9 | 8.7 | 0.00 | 0.00 | 0.00 | 43 | 1017.7 |
| 20260506165509 | 51 | 352 | 1.7 | 8.7 | 0.00 | 0.00 | 0.00 | 44 | 1017.7 |
| 20260506165010 | 51 | 301 | 1.7 | 7.0 | 0.00 | 0.00 | 0.00 | 43 | 1017.7 |
| 20260506164525 | 50 | 355 | 1.7 | 7.8 | 0.00 | 0.00 | 0.00 | 43 | 1017.8 |
| 20260506164009 | 51 | 45 | 1.7 | 7.8 | 0.00 | 0.00 | 0.00 | 44 | 1017.8 |
| 20260506163511 | 50 | 37 | 0.9 | 5.2 | 0.00 | 0.00 | 0.00 | 45 | 1017.8 |
| 20260506163030 | 50 | 17 | 1.7 | 8.7 | 0.00 | 0.00 | 0.00 | 44 | 1017.8 |
| 20260506162508 | 49 | 255 | 2.6 | 8.7 | 0.00 | 0.00 | 0.00 | 43 | 1017.9 |
| 20260506162011 | 50 | 48 | 1.7 | 6.1 | 0.00 | 0.00 | 0.00 | 43 | 1017.9 |
| 20260506161528 | 50 | 273 | 1.7 | 6.1 | 0.00 | 0.00 | 0.00 | 46 | 1018.0 |
| 20260506161007 | 50 | 8 | 1.7 | 6.1 | 0.00 | 0.00 | 0.00 | 46 | 1017.9 |
| 20260506160508 | 49 | 39 | 1.7 | 5.2 | 0.00 | 0.00 | 0.00 | 49 | 1017.8 |
| 20260506160019 | 49 | 33 | 1.7 | 6.1 | 0.00 | 0.00 | 0.00 | 46 | 1017.9 |
| 20260506155514 | 48 | 35 | 0.9 | 6.1 | 0.00 | 0.00 | 0.00 | 48 | 1017.9 |
| 20260506155003 | 48 | 60 | 1.7 | 7.8 | 0.00 | 0.00 | 0.00 | 48 | 1018.0 |
| 20260506154504 | 48 | 22 | 0.9 | 7.8 | 0.00 | 0.00 | 0.00 | 49 | 1018.0 |
| 20260506154003 | 47 | 335 | 1.7 | 5.2 | 0.00 | 0.00 | 0.00 | 50 | 1017.9 |
| 20260506153503 | 47 | 41 | 0.9 | 5.2 | 0.00 | 0.00 | 0.00 | 50 | 1017.9 |
| 20260506153004 | 48 | 83 | 0.9 | 5.2 | 0.00 | 0.00 | 0.00 | 51 | 1018.0 |
| 20260506152503 | 48 | 45 | 0.9 | 5.2 | 0.00 | 0.00 | 0.00 | 50 | 1018.0 |
| 20260506152006 | 47 | 318 | 0.9 | 4.3 | 0.00 | 0.00 | 0.00 | 50 | 1018.0 |
| 20260506151513 | 47 | 60 | 0.9 | 7.0 | 0.00 | 0.00 | 0.00 | 52 | 1018.1 |
| 20260506151007 | 47 | 22 | 0.9 | 7.0 | 0.00 | 0.00 | 0.00 | 50 | 1018.1 |
| 20260506150507 | 46 | 277 | 0.0 | 2.6 | 0.00 | 0.00 | 0.00 | 53 | 1018.1 |
| 20260506150017 | 45 | 345 | 0.9 | 3.5 | 0.00 | 0.00 | 0.00 | 53 | 1018.1 |
| 20260506145508 | 45 | 54 | 0.9 | 3.5 | 0.00 | 0.00 | 0.00 | 53 | 1018.1 |
| 20260506145007 | 45 | 38 | 0.9 | 3.5 | 0.00 | 0.00 | 0.00 | 52 | 1018.0 |
| 20260506144519 | 45 | 53 | 0.9 | 2.6 | 0.00 | 0.00 | 0.00 | 53 | 1018.1 |
| 20260506144004 | 44 | 37 | 0.0 | 2.6 | 0.00 | 0.00 | 0.00 | 53 | 1018.2 |
| 20260506143504 | 44 | 20 | 0.0 | 2.6 | 0.00 | 0.00 | 0.00 | 56 | 1018.2 |
| 20260506143006 | 44 | 41 | 0.0 | 3.5 | 0.00 | 0.00 | 0.00 | 55 | 1018.2 |
| 20260506142504 | 44 | 254 | 0.0 | 3.5 | 0.00 | 0.00 | 0.00 | 55 | 1018.1 |
| 20260506142003 | 44 | 29 | 0.0 | 2.6 | 0.00 | 0.00 | 0.00 | 56 | 1018.2 |
| 20260506141508 | 43 | 43 | 0.9 | 2.6 | 0.00 | 0.00 | 0.00 | 55 | 1018.2 |
| 20260506141007 | 43 | 52 | 0.0 | 2.6 | 0.00 | 0.00 | 0.00 | 61 | 1018.1 |
| 20260506140508 | 43 | 70 | 0.0 | 2.6 | 0.00 | 0.00 | 0.00 | 57 | 1018.1 |
| 20260506140012 | 42 | 345 | 0.0 | 1.7 | 0.00 | 0.00 | 0.00 | 60 | 1018.1 |
| 20260506135507 | 42 | 6 | 0.0 | 0.9 | 0.00 | 0.00 | 0.00 | 63 | 1018.0 |
| 20260506135008 | 42 | 20 | 0.0 | 0.0 | 0.00 | 0.00 | 0.00 | 65 | 1018.1 |
| 20260506134517 | 41 | 20 | 0.0 | 0.0 | 0.00 | 0.00 | 0.00 | 64 | 1018.2 |
| 20260506134008 | 41 | 20 | 0.0 | 0.0 | 0.00 | 0.00 | 0.00 | 64 | 1018.2 |
| 20260506133509 | 40 | 20 | 0.0 | 0.0 | 0.00 | 0.00 | 0.00 | 64 | 1018.2 |
| 20260506133024 | 39 | 20 | 0.0 | 0.0 | 0.00 | 0.00 | 0.00 | 67 | 1018.2 |
| 20260506132503 | 38 | 26 | 0.0 | 0.0 | 0.00 | 0.00 | 0.00 | 71 | 1018.1 |
| 20260506132008 | 37 | 39 | 0.0 | 0.0 | 0.00 | 0.00 | 0.00 | 73 | 1018.0 |
| 20260506131506 | 36 | 39 | 0.0 | 0.0 | 0.00 | 0.00 | 0.00 | 75 | 1018.0 |
| 20260506131004 | 35 | 39 | 0.0 | 0.0 | 0.00 | 0.00 | 0.00 | 76 | 1017.9 |
| 20260506130504 | 34 | 39 | 0.0 | 0.0 | 0.00 | 0.00 | 0.00 | 78 | 1017.9 |
| 20260506130014 | 34 | 39 | 0.0 | 0.9 | 0.00 | 0.00 | 0.00 | 79 | 1017.8 |
| 20260506125506 | 33 | 39 | 0.0 | 0.9 | 0.00 | 0.00 | 0.00 | 80 | 1017.8 |
| 20260506125006 | 32 | 41 | 0.0 | 0.0 | 0.00 | 0.00 | 0.00 | 81 | 1017.8 |
| 20260506124514 | 31 | 41 | 0.0 | 0.0 | 0.00 | 0.00 | 0.00 | 82 | 1017.7 |
| 20260506124007 | 31 | 41 | 0.0 | 0.0 | 0.00 | 0.00 | 0.00 | 82 | 1017.8 |
| 20260506123507 | 30 | 41 | 0.0 | 0.0 | 0.00 | 0.00 | 0.00 | 83 | 1017.7 |
| 20260506123021 | 29 | 41 | 0.0 | 0.0 | 0.00 | 0.00 | 0.00 | 83 | 1017.6 |
| 20260506122510 | 29 | 41 | 0.0 | 0.0 | 0.00 | 0.00 | 0.00 | 82 | 1017.6 |
| 20260506122009 | 29 | 41 | 0.0 | 0.0 | 0.00 | 0.00 | 0.00 | 82 | 1017.5 |
| 20260506121521 | 29 | 41 | 0.0 | 0.0 | 0.00 | 0.00 | 0.00 | 83 | 1017.4 |
| 20260506121003 | 28 | 41 | 0.0 | 0.0 | 0.00 | 0.00 | 0.00 | 83 | 1017.4 |
| 20260506120504 | 28 | 41 | 0.0 | 0.0 | 0.00 | 0.00 | 0.00 | 83 | 1017.4 |
| 20260506120008 | 27 | 41 | 0.0 | 0.0 | 0.00 | 0.00 | 0.00 | 82 | 1017.4 |
| 20260506115506 | 27 | 41 | 0.0 | 0.0 | 0.00 | 0.00 | 0.00 | 82 | 1017.3 |
| 20260506115007 | 27 | 41 | 0.0 | 0.0 | 0.00 | 0.00 | 0.00 | 81 | 1017.1 |
| 20260506114512 | 27 | 41 | 0.0 | 0.0 | 0.00 | 0.00 | 0.00 | 81 | 1016.8 |
| 20260506114006 | 27 | 41 | 0.0 | 0.0 | 0.00 | 0.00 | 0.00 | 81 | 1016.8 |
| 20260506113507 | 27 | 41 | 0.0 | 0.0 | 0.00 | 0.00 | 0.00 | 80 | 1016.8 |
| 20260506113017 | 27 | 41 | 0.0 | 0.0 | 0.00 | 0.00 | 0.00 | 80 | 1016.8 |
| 20260506112506 | 27 | 41 | 0.0 | 0.0 | 0.00 | 0.00 | 0.00 | 80 | 1016.7 |
| 20260506112008 | 27 | 41 | 0.0 | 0.0 | 0.00 | 0.00 | 0.00 | 80 | 1016.7 |
| 20260506111520 | 27 | 41 | 0.0 | 0.0 | 0.00 | 0.00 | 0.00 | 80 | 1016.6 |
| 20260506111008 | 27 | 41 | 0.0 | 0.0 | 0.00 | 0.00 | 0.00 | 79 | 1016.5 |
| 20260506110510 | 27 | 41 | 0.0 | 0.0 | 0.00 | 0.00 | 0.00 | 79 | 1016.5 |
| 20260506110027 | 27 | 41 | 0.0 | 0.0 | 0.00 | 0.00 | 0.00 | 79 | 1016.5 |
| 20260506105510 | 28 | 41 | 0.0 | 0.0 | 0.00 | 0.00 | 0.00 | 79 | 1016.6 |
| 20260506105004 | 28 | 41 | 0.0 | 0.0 | 0.00 | 0.00 | 0.00 | 79 | 1016.4 |
| 20260506104512 | 28 | 41 | 0.0 | 0.0 | 0.00 | 0.00 | 0.00 | 79 | 1016.4 |
| 20260506104005 | 28 | 41 | 0.0 | 0.0 | 0.00 | 0.00 | 0.00 | 78 | 1016.4 |
| 20260506103507 | 28 | 41 | 0.0 | 0.0 | 0.00 | 0.00 | 0.00 | 78 | 1016.3 |
| 20260506103025 | 28 | 41 | 0.0 | 0.0 | 0.00 | 0.00 | 0.00 | 78 | 1016.3 |
| 20260506102509 | 28 | 41 | 0.0 | 0.0 | 0.00 | 0.00 | 0.00 | 78 | 1016.3 |
| 20260506102007 | 28 | 41 | 0.0 | 0.0 | 0.00 | 0.00 | 0.00 | 78 | 1016.3 |
| 20260506101520 | 28 | 41 | 0.0 | 0.0 | 0.00 | 0.00 | 0.00 | 78 | 1016.3 |
| 20260506101008 | 29 | 41 | 0.0 | 0.0 | 0.00 | 0.00 | 0.00 | 77 | 1016.2 |
| 20260506100508 | 29 | 41 | 0.0 | 0.0 | 0.00 | 0.00 | 0.00 | 77 | 1016.2 |
| 20260506100025 | 29 | 41 | 0.0 | 0.0 | 0.00 | 0.00 | 0.00 | 78 | 1016.1 |
| 20260506095510 | 29 | 41 | 0.0 | 0.0 | 0.00 | 0.00 | 0.00 | 78 | 1016.1 |
| 20260506095009 | 28 | 41 | 0.0 | 0.0 | 0.00 | 0.00 | 0.00 | 78 | 1016.2 |
| 20260506094534 | 28 | 41 | 0.0 | 0.0 | 0.00 | 0.00 | 0.00 | 77 | 1016.1 |
| 20260506094010 | 29 | 41 | 0.0 | 0.0 | 0.00 | 0.00 | 0.00 | 77 | 1016.1 |
| 20260506093504 | 29 | 41 | 0.0 | 0.0 | 0.00 | 0.00 | 0.00 | 76 | 1016.0 |
| 20260506093012 | 29 | 41 | 0.0 | 0.0 | 0.00 | 0.00 | 0.00 | 77 | 1015.9 |
| 20260506092504 | 29 | 41 | 0.0 | 0.0 | 0.00 | 0.00 | 0.00 | 77 | 1016.0 |
| 20260506092008 | 29 | 41 | 0.0 | 0.0 | 0.00 | 0.00 | 0.00 | 77 | 1016.0 |
| 20260506091516 | 29 | 41 | 0.0 | 0.0 | 0.00 | 0.00 | 0.00 | 76 | 1016.1 |
| 20260506091010 | 29 | 41 | 0.0 | 0.0 | 0.00 | 0.00 | 0.00 | 76 | 1016.1 |
| 20260506090507 | 30 | 41 | 0.0 | 0.0 | 0.00 | 0.00 | 0.00 | 76 | 1015.9 |
| 20260506090021 | 30 | 41 | 0.0 | 0.0 | 0.00 | 0.00 | 0.00 | 76 | 1015.9 |
| 20260506085508 | 30 | 41 | 0.0 | 0.0 | 0.00 | 0.00 | 0.00 | 75 | 1015.9 |
| 20260506085008 | 30 | 41 | 0.0 | 0.0 | 0.00 | 0.00 | 0.00 | 75 | 1015.9 |
| 20260506084522 | 30 | 41 | 0.0 | 0.0 | 0.00 | 0.00 | 0.00 | 75 | 1015.8 |
| 20260506084009 | 30 | 41 | 0.0 | 0.0 | 0.00 | 0.00 | 0.00 | 75 | 1015.9 |
| 20260506083509 | 30 | 41 | 0.0 | 0.0 | 0.00 | 0.00 | 0.00 | 75 | 1015.9 |
| 20260506083029 | 30 | 41 | 0.0 | 0.0 | 0.00 | 0.00 | 0.00 | 75 | 1015.9 |
| 20260506082510 | 30 | 41 | 0.0 | 0.0 | 0.00 | 0.00 | 0.00 | 75 | 1015.7 |
| 20260506082006 | 30 | 41 | 0.0 | 0.0 | 0.00 | 0.00 | 0.00 | 74 | 1015.7 |
| 20260506081511 | 31 | 41 | 0.0 | 0.0 | 0.00 | 0.00 | 0.00 | 74 | 1015.7 |
| 20260506081007 | 31 | 41 | 0.0 | 0.0 | 0.00 | 0.00 | 0.00 | 73 | 1015.6 |
| 20260506080508 | 31 | 41 | 0.0 | 0.0 | 0.00 | 0.00 | 0.00 | 73 | 1015.5 |
| 20260506073514 | 32 | 41 | 0.0 | 0.0 | 0.00 | 0.00 | 0.00 | 72 | 1015.2 |
| 20260506073024 | 33 | 41 | 0.0 | 0.0 | 0.00 | 0.00 | 0.00 | 72 | 1015.2 |
| 20260506072509 | 33 | 41 | 0.0 | 0.0 | 0.00 | 0.00 | 0.00 | 73 | 1015.1 |
| 20260506072008 | 33 | 41 | 0.0 | 0.0 | 0.00 | 0.00 | 0.00 | 73 | 1015.1 |
| 20260506071526 | 32 | 41 | 0.0 | 0.0 | 0.00 | 0.00 | 0.00 | 73 | 1015.1 |
| 20260506071009 | 32 | 41 | 0.0 | 0.0 | 0.00 | 0.00 | 0.00 | 73 | 1015.2 |
| 20260506070506 | 32 | 41 | 0.0 | 0.0 | 0.00 | 0.00 | 0.00 | 73 | 1015.5 |
| 20260506062505 | 32 | 41 | 0.0 | 0.0 | 0.00 | 0.00 | 0.00 | 71 | 1015.7 |
| 20260506062003 | 32 | 41 | 0.0 | 0.0 | 0.00 | 0.00 | 0.00 | 70 | 1015.7 |
| 20260506061510 | 32 | 41 | 0.0 | 0.0 | 0.00 | 0.00 | 0.00 | 69 | 1015.7 |
| 20260506061012 | 32 | 41 | 0.0 | 0.0 | 0.00 | 0.00 | 0.00 | 70 | 1015.6 |
| 20260506060504 | 33 | 41 | 0.0 | 0.0 | 0.00 | 0.00 | 0.00 | 69 | 1015.5 |
| 20260506051002 | 35 | 41 | 0.0 | 0.0 | 0.00 | 0.00 | 0.00 | 66 | 1014.9 |
| 20260506050503 | 35 | 41 | 0.0 | 0.0 | 0.00 | 0.00 | 0.00 | 65 | 1014.9 |
| 20260506045007 | 35 | 41 | 0.0 | 0.0 | 0.00 | 0.00 | 0.00 | 63 | 1015.0 |
| 20260506044512 | 36 | 41 | 0.0 | 0.9 | 0.00 | 0.00 | 0.00 | 64 | 1015.0 |
| 20260506044005 | 36 | 41 | 0.0 | 0.9 | 0.00 | 0.00 | 0.00 | 64 | 1015.0 |
| 20260506043505 | 36 | 41 | 0.0 | 0.9 | 0.00 | 0.00 | 0.00 | 64 | 1015.0 |
| 20260506043014 | 36 | 41 | 0.0 | 0.9 | 0.00 | 0.00 | 0.00 | 64 | 1015.0 |
| 20260506042506 | 36 | 41 | 0.0 | 0.0 | 0.00 | 0.00 | 0.00 | 63 | 1015.0 |
| 20260506042007 | 36 | 41 | 0.0 | 0.0 | 0.00 | 0.00 | 0.00 | 63 | 1014.9 |
| 20260506041509 | 36 | 41 | 0.0 | 0.0 | 0.00 | 0.00 | 0.00 | 62 | 1015.0 |
| 20260506041007 | 36 | 41 | 0.0 | 0.0 | 0.00 | 0.00 | 0.00 | 61 | 1015.1 |
| 20260506040503 | 36 | 41 | 0.0 | 0.0 | 0.00 | 0.00 | 0.00 | 61 | 1015.2 |
| 20260506040014 | 37 | 41 | 0.0 | 0.0 | 0.00 | 0.00 | 0.00 | 60 | 1015.2 |
| 20260506035507 | 37 | 41 | 0.0 | 0.0 | 0.00 | 0.00 | 0.00 | 60 | 1015.2 |
| 20260506035008 | 37 | 41 | 0.0 | 0.0 | 0.00 | 0.00 | 0.00 | 60 | 1015.1 |
| 20260506034510 | 38 | 41 | 0.0 | 0.0 | 0.00 | 0.00 | 0.00 | 59 | 1015.1 |
| 20260506034008 | 38 | 41 | 0.0 | 0.0 | 0.00 | 0.00 | 0.00 | 59 | 1015.1 |
| 20260506033506 | 38 | 41 | 0.0 | 0.0 | 0.00 | 0.00 | 0.00 | 58 | 1015.0 |
| 20260506033009 | 39 | 41 | 0.0 | 0.0 | 0.00 | 0.00 | 0.00 | 57 | 1014.9 |
| 20260506032506 | 39 | 41 | 0.0 | 0.0 | 0.00 | 0.00 | 0.00 | 57 | 1014.9 |
| 20260506032007 | 39 | 41 | 0.0 | 0.9 | 0.00 | 0.00 | 0.00 | 56 | 1014.9 |
| 20260506031517 | 40 | 41 | 0.0 | 0.9 | 0.00 | 0.00 | 0.00 | 56 | 1014.7 |
| 20260506031004 | 40 | 41 | 0.0 | 0.9 | 0.00 | 0.00 | 0.00 | 56 | 1014.9 |
| 20260506030504 | 40 | 39 | 0.0 | 0.0 | 0.00 | 0.00 | 0.00 | 55 | 1014.9 |
| 20260506030020 | 41 | 39 | 0.0 | 0.0 | 0.00 | 0.00 | 0.00 | 54 | 1014.8 |
| 20260506025503 | 41 | 39 | 0.0 | 0.0 | 0.00 | 0.00 | 0.00 | 54 | 1014.8 |
| 20260506025006 | 41 | 39 | 0.0 | 0.0 | 0.00 | 0.00 | 0.00 | 53 | 1014.9 |
| 20260506024514 | 42 | 39 | 0.0 | 1.7 | 0.00 | 0.00 | 0.00 | 52 | 1014.8 |
| 20260506024007 | 42 | 39 | 0.0 | 1.7 | 0.00 | 0.00 | 0.00 | 51 | 1014.6 |
| 20260506023510 | 42 | 39 | 0.0 | 1.7 | 0.00 | 0.00 | 0.00 | 51 | 1014.4 |